| time (UTC) | temp F | wind direction | speed MPH | gust MPH | rain 1hr in | rain 24hr in | rain mn in | humidity % | barometer mb |
| 20260504034526 | 49 | 146 | 0.0 | 0.0 | 0.00 | 0.00 | 0.00 | 76 | 1018.6 |
| 20260504033029 | 50 | 146 | 0.0 | 1.0 | 0.00 | 0.00 | 0.00 | 76 | 1018.5 |
| 20260504031514 | 51 | 146 | 0.0 | 1.0 | 0.00 | 0.00 | 0.00 | 71 | 1018.6 |
| 20260504030015 | 51 | 151 | 0.0 | 1.0 | 0.00 | 0.00 | 0.00 | 72 | 1018.2 |
| 20260504024520 | 51 | 166 | 0.0 | 0.0 | 0.00 | 0.00 | 0.00 | 72 | 1018.4 |
| 20260504023026 | 51 | 165 | 0.0 | 0.0 | 0.00 | 0.00 | 0.00 | 71 | 1018.3 |
| 20260504021528 | 52 | 165 | 0.0 | 0.0 | 0.00 | 0.00 | 0.00 | 70 | 1018.1 |
| 20260504020011 | 53 | 165 | 0.0 | 1.0 | 0.00 | 0.00 | 0.00 | 67 | 1018.0 |
| 20260504014515 | 53 | 222 | 0.0 | 1.0 | 0.00 | 0.00 | 0.00 | 68 | 1017.7 |
| 20260504013029 | 54 | 222 | 0.0 | 1.0 | 0.00 | 0.00 | 0.00 | 66 | 1017.6 |
| 20260504011528 | 55 | 222 | 0.0 | 0.0 | 0.00 | 0.00 | 0.00 | 63 | 1017.6 |
| 20260504010027 | 56 | 183 | 0.0 | 0.0 | 0.00 | 0.00 | 0.00 | 60 | 1017.5 |
| 20260504004514 | 58 | 183 | 0.0 | 0.0 | 0.00 | 0.00 | 0.00 | 55 | 1017.4 |
| 20260504003023 | 60 | 183 | 0.0 | 0.0 | 0.00 | 0.00 | 0.00 | 53 | 1017.3 |
| 20260504001524 | 62 | 183 | 0.0 | 1.0 | 0.00 | 0.00 | 0.00 | 49 | 1017.2 |
| 20260504000049 | 64 | 152 | 0.0 | 3.0 | 0.00 | 0.00 | 0.00 | 43 | 1017.1 |
| 20260503234528 | 67 | 162 | 0.0 | 3.0 | 0.00 | 0.00 | 0.00 | 39 | 1017.1 |
| 20260503233013 | 68 | 172 | 1.0 | 5.0 | 0.00 | 0.00 | 0.00 | 39 | 1017.0 |
| 20260503231519 | 68 | 257 | 3.0 | 9.0 | 0.00 | 0.00 | 0.00 | 37 | 1017.1 |
| 20260503230022 | 69 | 189 | 1.0 | 7.0 | 0.00 | 0.00 | 0.00 | 38 | 1017.2 |
| 20260503224526 | 69 | 238 | 3.0 | 8.0 | 0.00 | 0.00 | 0.00 | 37 | 1017.1 |
| 20260503223036 | 68 | 241 | 4.0 | 9.0 | 0.00 | 0.00 | 0.00 | 37 | 1017.2 |
| 20260503221537 | 70 | 198 | 4.0 | 8.0 | 0.00 | 0.00 | 0.00 | 37 | 1017.2 |
| 20260503220022 | 69 | 238 | 3.0 | 9.0 | 0.00 | 0.00 | 0.00 | 37 | 1017.3 |
| 20260503214527 | 69 | 271 | 5.0 | 10.0 | 0.00 | 0.00 | 0.00 | 37 | 1017.4 |
| 20260503213009 | 69 | 269 | 4.0 | 10.0 | 0.00 | 0.00 | 0.00 | 36 | 1017.5 |
| 20260503211518 | 70 | 249 | 4.0 | 8.0 | 0.00 | 0.00 | 0.00 | 37 | 1017.8 |
| 20260503210016 | 68 | 222 | 4.0 | 12.0 | 0.00 | 0.00 | 0.00 | 38 | 1017.9 |
| 20260503204522 | 68 | 297 | 3.0 | 9.0 | 0.00 | 0.00 | 0.00 | 38 | 1018.1 |
| 20260503203008 | 68 | 154 | 4.0 | 9.0 | 0.00 | 0.00 | 0.00 | 38 | 1018.2 |
| 20260503201507 | 68 | 295 | 6.0 | 15.0 | 0.00 | 0.00 | 0.00 | 38 | 1018.5 |
| 20260503200012 | 68 | 315 | 5.0 | 11.0 | 0.00 | 0.00 | 0.00 | 38 | 1018.8 |
| 20260503194518 | 68 | 224 | 4.0 | 10.0 | 0.00 | 0.00 | 0.00 | 37 | 1019.2 |
| 20260503193022 | 67 | 221 | 4.0 | 11.0 | 0.00 | 0.00 | 0.00 | 40 | 1019.4 |
| 20260503191504 | 67 | 210 | 3.0 | 8.0 | 0.00 | 0.00 | 0.00 | 37 | 1019.5 |
| 20260503190009 | 68 | 233 | 4.0 | 8.0 | 0.00 | 0.00 | 0.00 | 37 | 1019.6 |
| 20260503184514 | 66 | 149 | 3.0 | 9.0 | 0.00 | 0.00 | 0.00 | 38 | 1019.8 |
| 20260503183027 | 66 | 223 | 2.0 | 14.0 | 0.00 | 0.00 | 0.00 | 37 | 1019.9 |
| 20260503181528 | 66 | 245 | 3.0 | 9.0 | 0.00 | 0.00 | 0.00 | 36 | 1020.0 |
| 20260503180011 | 66 | 281 | 4.0 | 10.0 | 0.00 | 0.00 | 0.00 | 36 | 1020.1 |
| 20260503174516 | 65 | 214 | 2.0 | 8.0 | 0.00 | 0.00 | 0.00 | 39 | 1020.2 |
| 20260503173035 | 65 | 233 | 0.0 | 7.0 | 0.00 | 0.00 | 0.00 | 44 | 1020.3 |
| 20260503171521 | 64 | 326 | 3.0 | 7.0 | 0.00 | 0.00 | 0.00 | 41 | 1020.6 |
| 20260503081518 | 39 | 46 | 0.0 | 0.0 | 0.00 | 0.01 | 0.00 | 94 | 1018.7 |
| 20260503071525 | 40 | 46 | 0.0 | 0.0 | 0.00 | 0.01 | 0.00 | 94 | 1018.1 |
| 20260503054511 | 43 | 46 | 0.0 | 0.0 | 0.00 | 0.01 | 0.00 | 93 | 1018.0 |
| 20260503053017 | 43 | 46 | 0.0 | 0.0 | 0.00 | 0.01 | 0.00 | 93 | 1018.0 |
| 20260503051524 | 43 | 148 | 0.0 | 0.0 | 0.00 | 0.01 | 0.00 | 92 | 1018.1 |
| 20260503050024 | 43 | 148 | 0.0 | 0.0 | 0.00 | 0.01 | 0.00 | 91 | 1018.0 |
| 20260503044530 | 44 | 62 | 0.0 | 0.0 | 0.00 | 0.01 | 0.00 | 92 | 1017.9 |
| 20260503043012 | 44 | 62 | 0.0 | 0.0 | 0.00 | 0.01 | 0.00 | 90 | 1018.0 |
| 20260503041516 | 44 | 62 | 0.0 | 0.0 | 0.00 | 0.01 | 0.00 | 89 | 1018.0 |
| 20260503040030 | 45 | 62 | 0.0 | 0.0 | 0.00 | 0.01 | 0.00 | 89 | 1017.9 |